User: anonymous   Login
Location: Newark
(25.4800°N, 85.7200°E)
Time: 00:32:35
(UTC+00:00)
Language:

Tiros 1 despin weight - Orbit

View from above orbital plane
View from above orbital plane
View from above satellite
View from above satellite

Ground track
Ground track

The orbit data is extracted from the following two-line orbital elements,

1   115U 60002D   19232.52172057 -.00000084  00000-0  17151-4 0  9993
2   115  48.1666 285.9776 0034298 356.8785   3.1908 14.83463325168142
Epoch (UTC): 20 August 2019 12:31:16
Eccentricity: 0.0034298
inclination: 48.1666°
perigee height: 594 km
apogee height: 642 km
right ascension of ascending node: 285.9776°
argument of perigee: 356.8785°
revolutions per day: 14.83463325
mean anomaly at epoch: 3.1908°
orbit number at epoch: 16814

The dashed part of the orbit path shows where the satellite is in the earth's shadow,  

DLR